Volver al catálogo

HCT-SAT2

ActivoCienciaSSO
NORAD 66676·PAYLOAD·🇸🇦 Saudi Arabia
Este nombre de satélite aún no ha sido confirmado por fuentes oficiales.

Lanzado Nov 28, 2025 desde Vandenberg Space Force Base

Loading…

Próximos Pases (próximas 24 horas)

TLE

ActualizadoSource: Space-Track

Época: Sep 14, 2026, 11:15 UTC

1 66676U 25276L   26257.46935311  .00003905  00000-0  18576-3 0  9994
2 66676  97.4099 329.1293 0007113  61.8488 298.3465 15.19741640 43964

Sigue HCT-SAT2 en tiempo real con AllMySat

Download on the App Store